Wind_Speed
33 35 36 38 40 42 44 46 48 50 51 53 53 50 46 42 39 36 33 31 30 29 28 29 33 36 38 40 43 46 48 49 49 48 46 43 42 46 50 51 50 52 52 50 48 47 46 45 45 44 45 45 47 47 46 44 44 43 41 40 38 38 37 36 36 32 31 33 30 29 29 28 26 25 26 26 26 24 20 18 17 15 14 13 12 13 13 14
34 35 36 38 40 42 45 47 49 51 53 55 55 53 49 44 41 38 35 32 30 30 29 29 32 36 38 40 41 44 47 49 49 48 48 46 43 44 48 51 51 51 53 53 51 49 47 47 46 45 45 45 46 47 47 45 44 44 42 41 39 37 37 35 33 31 32 32 30 29 29 28 27 27 28 26 23 21 20 19 18 16 15 13 12 13 14 14
34 35 37 39 41 43 45 47 50 52 54 56 57 55 51 47 43 40 36 33 30 30 30 29 32 35 37 40 41 42 45 49 49 48 49 48 46 44 46 50 52 51 52 53 53 52 50 48 48 47 45 45 45 45 48 47 45 44 43 42 40 38 38 36 33 32 31 31 31 31 30 30 30 30 28 26 21 20 22 23 21 18 18 16 14 14 14 14
35 36 37 39 41 43 45 48 51 53 55 58 59 57 53 49 45 42 38 34 30 29 30 30 31 34 37 39 41 42 43 47 49 49 49 48 48 46 46 48 50 52 52 53 54 54 53 51 50 49 47 46 45 43 45 48 47 45 45 44 43 39 39 38 34 32 32 32 34 33 31 31 30 30 30 29 26 26 25 22 20 18 19 19 16 15 15 15
35 37 38 40 42 44 46 49 51 54 57 59 60 58 54 50 47 43 39 34 30 28 29 30 31 33 36 38 40 42 43 44 47 49 49 49 49 48 47 47 48 51 52 53 54 55 55 53 52 51 49 47 46 42 41 45 48 48 47 45 43 41 40 38 35 34 35 36 36 33 32 32 32 32 31 29 27 26 24 21 20 20 21 20 17 16 15 16
35 37 39 41 42 44 47 49 52 55 58 61 62 60 55 51 48 44 39 33 30 28 28 30 31 33 35 37 39 41 44 44 44 47 50 49 49 49 48 48 48 49 51 52 53 54 55 55 54 52 51 49 46 44 40 41 45 48 48 45 42 41 39 38 37 35 36 38 36 33 31 32 32 31 29 27 24 22 22 23 24 23 23 21 18 17 16 16
36 38 40 41 43 45 47 50 53 56 59 62 63 60 56 52 49 44 38 32 29 28 27 28 31 33 34 36 38 40 43 44 44 45 48 50 50 49 49 49 49 48 49 51 53 54 55 55 55 54 53 51 48 46 42 40 41 44 47 47 44 42 40 38 37 35 35 37 35 32 31 30 30 29 27 26 25 24 24 25 26 26 26 23 19 18 18 17
37 38 40 42 44 46 48 51 53 57 60 63 64 61 56 53 49 43 36 32 28 27 27 28 30 32 35 36 37 39 41 43 45 45 46 49 50 50 50 50 50 48 48 50 52 53 54 55 55 55 54 52 50 48 45 42 41 40 42 46 46 44 41 38 36 36 37 36 34 32 30 30 29 28 27 27 28 27 26 26 28 28 26 23 21 19 18 17
38 39 41 43 45 46 49 51 54 57 61 64 64 61 57 54 49 41 35 31 28 26 26 26 27 30 34 37 38 39 40 42 45 46 45 47 49 50 50 50 51 49 48 49 50 52 53 55 55 55 54 53 52 51 47 44 42 40 38 42 45 46 43 38 37 38 38 37 35 33 32 31 29 29 29 29 30 29 27 27 29 30 27 24 22 20 19 18
39 40 41 43 45 47 49 52 55 58 62 65 65 61 57 54 48 39 34 30 28 26 25 24 24 26 30 35 39 40 40 41 44 46 46 46 47 50 50 50 51 50 49 48 49 51 52 53 54 54 54 53 52 51 49 46 43 40 38 38 40 44 43 40 39 40 39 38 37 35 34 33 31 30 29 29 29 29 28 28 28 29 29 26 23 21 20 19
40 41 42 43 45 48 50 52 55 59 63 66 65 61 57 53 47 38 32 30 28 26 24 22 22 22 24 29 36 40 41 41 43 45 46 46 45 48 50 50 51 51 50 49 49 49 50 51 52 53 53 53 52 50 48 47 44 40 38 37 37 39 41 40 40 40 40 39 38 37 36 35 34 32 31 30 29 28 28 27 25 26 27 25 23 22 20 19
40 41 42 44 46 48 51 53 56 59 63 66 65 61 57 53 46 36 31 29 28 26 22 21 21 21 20 22 28 36 41 42 42 44 46 46 45 46 49 50 50 51 50 49 48 48 49 50 51 52 52 52 51 49 47 46 44 41 39 38 38 37 37 37 38 39 40 40 39 38 37 36 35 34 32 30 30 28 28 27 26 26 25 24 24 23 21 20
40 41 43 44 46 48 51 53 56 60 63 66 66 61 57 52 44 35 29 28 27 25 22 21 19 18 18 17 20 28 37 41 42 43 45 46 46 45 47 50 50 51 51 49 48 48 48 49 50 51 51 51 51 49 46 46 45 43 41 39 39 38 36 35 35 37 40 41 40 39 38 37 36 34 32 30 29 28 28 27 27 27 26 25 26 25 24 21
40 41 43 44 46 48 51 54 56 60 64 66 66 61 57 51 43 34 29 27 27 25 23 21 19 16 15 14 15 20 29 38 41 42 45 46 45 45 45 48 50 50 50 49 48 48 48 48 49 50 51 51 51 49 47 47 45 44 43 42 41 40 38 36 34 35 38 40 40 40 39 38 36 34 33 32 30 29 27 27 28 28 28 27 27 27 25 22
40 42 43 45 46 48 51 54 56 60 63 66 66 62 56 50 42 33 28 26 27 26 24 22 19 15 12 12 12 14 20 31 38 41 44 45 45 44 44 46 49 50 50 50 48 48 47 47 47 49 49 49 49 50 49 48 46 44 43 43 43 41 39 37 36 34 36 38 39 40 40 38 36 35 34 33 32 31 29 29 29 30 30 30 28 27 25 23
40 42 43 45 46 48 51 54 56 60 63 66 66 62 56 50 41 33 28 26 26 26 24 22 18 13 10 10 10 11 14 23 33 39 42 45 45 43 43 44 48 50 50 50 49 48 47 47 47 47 47 48 49 49 49 48 46 44 43 42 41 41 40 39 37 35 34 36 38 40 41 38 36 36 35 33 33 31 30 30 31 31 32 31 29 28 26 24
40 42 43 45 46 48 51 53 56 59 63 66 66 61 56 50 41 33 28 26 27 27 26 24 18 11 8 9 9 10 12 17 26 34 39 43 45 43 42 43 46 50 51 50 49 48 47 47 46 45 46 47 48 48 48 48 47 44 42 41 40 39 38 38 38 36 35 35 36 39 40 38 36 37 36 35 34 33 32 32 32 33 33 32 30 29 26 24
40 41 43 45 46 48 51 53 56 59 62 65 65 61 56 50 42 33 28 26 27 27 26 24 19 11 8 8 8 10 12 15 20 28 35 40 44 43 41 42 45 48 50 50 49 48 47 46 45 45 45 46 47 46 46 46 44 42 42 40 39 38 38 37 37 36 36 35 34 36 38 37 36 37 37 36 35 35 34 33 32 33 35 34 32 31 28 24
39 41 43 44 46 48 50 53 55 58 62 65 65 61 56 51 42 33 28 26 27 28 26 23 19 12 8 6 6 9 12 15 19 24 31 38 43 43 41 41 43 47 50 49 49 48 47 46 46 45 44 44 45 45 44 43 42 42 41 38 37 37 37 37 36 35 34 35 34 34 35 36 36 36 36 36 35 35 34 34 32 30 32 34 33 32 30 25
39 40 42 44 45 47 50 52 55 58 61 64 65 61 56 51 43 35 29 26 26 28 27 23 19 13 7 5 4 6 11 16 20 23 28 35 42 42 40 40 42 46 49 49 48 48 47 46 45 45 43 42 43 43 43 42 42 43 41 38 36 34 34 34 34 33 33 33 33 33 33 34 36 36 35 35 34 32 32 32 30 28 30 32 33 33 30 25
38 40 42 43 45 47 49 51 54 57 60 64 64 60 55 51 44 35 30 27 27 28 27 24 20 15 8 4 4 4 9 15 21 25 27 33 40 41 39 39 41 45 49 49 48 48 48 47 45 44 43 41 40 41 42 42 42 42 40 38 37 35 33 32 32 32 31 31 31 31 32 32 34 35 34 33 32 31 30 30 29 28 29 31 32 30 28 26
37 39 41 43 44 46 48 51 53 56 59 63 64 60 55 51 44 35 30 28 28 29 27 24 21 16 10 2 4 4 8 15 22 26 28 32 38 40 39 39 40 45 48 48 48 48 48 47 44 43 41 40 38 38 40 40 40 40 40 38 37 36 33 32 33 32 30 30 29 30 31 31 31 32 33 32 29 29 29 29 28 26 26 29 30 28 28 26
36 38 40 42 44 46 48 50 52 55 58 62 63 60 55 51 45 35 30 29 28 29 28 25 23 18 12 5 3 5 8 17 24 27 29 31 36 38 38 39 40 44 47 47 47 47 47 45 43 42 40 39 38 37 38 39 39 39 38 37 36 35 34 33 32 31 31 30 29 29 30 30 30 30 32 31 27 26 26 26 27 27 25 27 29 29 28 26
35 37 39 41 43 45 47 49 51 54 57 61 62 59 55 50 45 36 29 29 29 30 29 26 25 20 14 8 4 7 12 21 27 29 30 32 35 36 36 38 39 42 46 47 47 46 45 44 42 41 39 38 38 38 37 37 38 38 36 35 35 35 35 33 31 30 30 30 29 29 29 29 29 29 30 30 28 26 25 24 26 28 26 26 27 28 28 26
34 36 38 40 42 44 46 48 50 53 55 59 61 59 55 50 44 36 29 30 31 30 29 27 25 21 16 12 9 12 17 25 29 30 31 32 34 34 35 38 40 44 47 48 47 46 45 43 42 40 39 38 38 37 36 36 36 35 34 34 34 35 34 33 32 31 30 30 29 29 28 28 27 27 28 30 28 26 25 24 24 26 27 27 26 27 28 25
33 35 37 39 41 43 45 47 49 52 54 58 60 58 55 50 44 36 30 30 31 27 27 27 24 20 17 14 14 17 23 28 30 30 31 33 34 34 34 36 40 44 47 48 46 45 44 43 41 40 39 38 37 36 35 35 34 32 32 31 32 33 33 32 32 31 31 31 30 29 29 27 26 26 27 28 27 25 24 24 24 24 25 27 27 28 28 25
32 34 36 38 40 42 44 46 48 50 53 56 59 58 55 51 44 37 31 29 29 26 27 26 22 18 17 16 17 21 25 29 30 30 30 32 34 33 33 34 38 43 46 46 45 44 43 43 42 40 40 39 37 35 33 32 31 29 29 30 29 30 31 32 33 32 32 31 31 31 30 27 25 24 25 26 26 24 23 22 24 25 24 26 27 26 24 22
31 33 35 37 39 40 42 45 47 49 51 54 58 58 55 51 45 39 34 30 28 27 27 26 23 20 18 18 20 23 26 28 29 29 30 32 33 31 31 33 35 40 43 44 44 44 43 42 42 41 40 38 35 33 32 30 28 27 27 28 27 27 28 31 33 33 33 32 32 31 30 29 26 23 22 24 23 21 18 16 18 21 20 19 21 20 18 19
30 32 34 36 37 39 41 43 45 47 50 52 56 57 55 51 47 42 36 31 28 28 27 25 24 22 21 21 22 24 25 26 26 28 30 32 32 31 30 31 33 37 41 43 43 44 43 42 41 39 37 36 34 32 30 29 27 26 26 25 25 25 27 30 32 33 33 32 32 31 31 29 27 25 22 20 21 19 14 12 11 12 12 12 14 15 16 17
28 30 32 34 36 38 40 42 44 46 48 50 54 56 55 52 49 43 37 32 29 27 25 24 23 22 23 23 23 24 24 23 23 26 30 31 31 30 30 31 33 35 41 43 42 43 43 42 40 38 36 35 33 32 30 29 27 26 25 24 24 25 27 28 30 32 33 32 31 31 31 30 28 28 25 21 21 19 13 10 6 5 6 9 12 15 16 16
27 29 31 33 35 37 38 40 42 44 46 49 52 55 55 53 50 45 40 35 30 25 23 23 23 22 22 22 22 22 23 22 22 24 27 29 29 29 30 32 34 36 40 43 42 41 42 41 39 37 36 35 33 32 31 29 28 26 25 24 24 25 25 25 26 28 30 30 30 29 29 29 28 28 28 26 24 20 13 8 7 6 7 9 13 15 15 14
25 27 29 31 33 35 37 39 41 43 45 47 50 53 55 54 51 47 43 37 31 25 22 21 23 23 21 21 22 21 21 21 22 24 25 26 26 26 28 31 35 38 41 43 43 42 42 41 40 38 36 35 33 32 31 29 28 27 25 24 23 23 23 23 23 25 27 27 27 27 27 27 27 27 28 27 26 24 21 19 16 12 10 11 13 13 13 13
24 25 27 30 31 34 36 37 39 41 43 45 47 50 53 54 52 49 44 38 32 26 22 20 21 22 21 20 20 20 20 20 21 23 23 24 24 25 26 28 33 37 40 42 43 43 42 41 40 38 36 35 33 32 30 29 28 26 24 23 22 22 22 22 22 22 23 22 22 22 24 25 26 25 23 24 27 27 26 24 20 16 12 12 14 13 13 14
22 24 26 28 30 32 34 36 38 40 41 44 45 47 51 53 53 49 44 40 34 28 23 20 18 20 21 20 19 18 19 20 21 21 21 21 22 23 24 25 30 34 37 41 42 42 42 42 40 38 36 35 33 31 30 29 28 26 25 24 23 22 21 19 19 17 15 15 16 18 21 22 22 21 20 22 25 25 23 22 19 15 13 14 15 15 15 15
20 22 24 26 28 30 32 34 36 38 40 42 43 45 49 52 53 49 45 41 36 30 26 22 18 18 19 20 19 18 18 19 21 20 20 20 21 22 22 24 29 33 35 39 41 41 40 40 39 37 35 34 33 31 30 28 26 25 24 23 22 21 19 17 14 12 11 12 14 16 17 18 18 17 17 20 22 20 19 19 16 14 14 16 16 16 16 16
18 20 22 24 26 28 31 33 35 37 39 40 41 44 47 50 52 50 47 43 38 33 28 24 19 17 18 19 19 19 18 18 19 19 19 20 20 21 21 23 28 31 33 36 38 40 39 38 38 36 34 33 32 30 29 27 25 24 23 22 20 18 18 17 15 13 14 14 13 14 14 14 15 15 15 16 16 16 16 16 15 15 16 17 16 16 16 16
15 18 20 22 24 26 29 31 33 35 37 39 40 42 45 47 50 50 48 44 40 36 31 27 23 19 17 18 19 19 18 19 18 17 18 19 20 20 20 22 26 29 31 33 35 36 36 36 37 36 34 33 32 30 29 27 25 24 22 21 20 19 19 18 17 16 16 14 13 13 13 12 13 13 12 13 14 14 15 15 15 16 16 16 15 15 15 16
14 16 18 19 22 24 26 29 31 33 35 37 38 40 43 44 47 49 49 46 42 39 34 30 27 22 17 17 18 18 18 18 18 16 17 18 18 20 20 22 25 28 29 31 32 34 33 34 35 34 33 32 31 30 29 28 26 23 21 21 21 21 20 19 18 17 16 14 12 13 13 13 14 13 13 13 14 14 14 15 15 14 14 14 14 15 16 17
12 14 16 17 20 22 24 27 29 31 33 35 37 39 40 42 44 47 49 48 45 41 37 34 30 25 21 18 17 17 17 18 18 17 17 18 18 20 21 23 26 27 28 30 31 32 33 32 34 33 32 31 31 29 29 28 26 23 22 22 21 20 18 18 17 16 15 14 13 13 14 13 14 14 13 14 13 13 13 13 13 13 14 14 15 16 18 20
11 12 14 15 17 20 22 24 27 29 31 33 35 37 38 40 41 44 47 48 47 43 40 37 33 29 25 22 19 17 17 18 18 17 18 19 19 21 23 25 28 28 28 30 30 30 31 29 31 32 31 30 30 29 28 27 25 24 23 22 21 19 18 18 17 16 15 15 13 13 14 13 13 13 13 13 13 13 13 13 14 14 15 16 17 19 20 22
11 10 12 13 15 17 20 22 24 27 29 31 34 35 36 38 39 41 44 46 47 46 42 39 36 32 29 26 22 20 18 18 18 18 19 20 20 22 24 25 28 28 28 30 30 29 30 28 28 30 30 29 28 27 26 25 24 24 23 21 19 18 18 18 17 17 16 15 14 14 14 13 13 13 13 13 13 13 14 15 15 16 17 18 19 20 22 23
10 9 10 11 13 15 17 20 22 24 26 29 31 33 35 36 37 39 41 43 45 46 45 42 38 35 32 29 26 24 21 20 20 19 19 21 21 22 23 25 27 28 28 30 30 29 29 29 27 27 27 27 27 26 25 24 24 22 21 20 19 18 18 17 16 15 15 15 15 15 14 13 14 15 14 14 15 15 16 16 17 18 19 20 20 21 22 23
10 9 9 9 11 12 15 17 19 21 24 26 29 31 33 34 36 37 39 40 42 44 45 44 41 38 34 31 29 26 24 23 23 21 20 21 21 22 23 24 25 26 26 28 29 29 28 27 26 24 24 23 23 24 24 23 23 21 19 19 19 18 18 16 15 15 14 15 15 15 14 14 15 15 15 15 16 16 17 17 18 19 19 20 21 22 23 24
11 10 8 8 9 10 12 14 17 19 21 24 26 28 31 33 34 36 37 38 39 41 43 45 44 41 37 34 31 28 26 24 24 23 21 21 21 21 23 24 24 24 25 26 27 26 27 27 27 25 23 23 22 21 21 21 21 20 19 18 17 17 17 16 15 15 15 15 15 15 14 14 15 15 15 15 16 16 17 17 18 19 20 21 22 23 24 24
12 10 9 8 8 8 9 12 14 16 18 21 23 26 28 30 32 34 35 36 37 38 40 42 43 43 41 38 34 30 27 24 23 22 22 21 21 21 22 23 24 24 24 24 24 24 24 26 27 26 25 24 22 21 20 19 19 19 19 18 17 16 16 16 16 15 15 14 14 14 14 14 14 16 16 16 16 17 17 18 19 20 21 22 22 23 24 24
13 12 10 8 7 6 7 9 12 13 15 18 20 23 25 27 30 32 33 34 35 36 37 38 40 42 42 41 38 34 30 27 24 22 21 20 20 21 21 22 23 23 24 24 23 22 22 23 24 25 24 23 21 20 19 19 18 18 18 18 17 16 16 15 15 14 14 14 13 13 13 13 14 16 16 16 17 18 18 19 20 21 22 22 23 24 24 25
15 14 12 9 8 6 5 7 9 11 13 15 17 19 22 24 27 29 31 33 34 34 35 36 37 38 40 41 40 38 34 31 28 25 22 21 19 20 20 21 22 23 23 23 23 22 21 21 22 23 22 21 20 19 18 18 17 17 17 16 16 16 15 14 14 13 13 14 14 14 15 15 15 17 17 17 18 19 19 20 21 22 22 22 23 24 25 25
17 16 14 11 9 8 6 5 7 9 10 12 14 16 18 21 23 25 28 30 32 33 33 34 34 35 36 38 39 39 37 35 31 29 26 24 21 19 19 20 21 21 22 22 21 21 21 20 21 21 21 21 20 19 19 18 17 16 16 15 16 15 15 15 14 14 15 15 14 15 16 16 18 19 19 19 19 20 20 21 22 22 22 23 24 25 26 27
20 18 16 14 12 9 7 6 5 7 8 10 11 13 15 17 19 22 24 27 29 30 32 32 33 33 34 34 35 36 37 37 35 33 30 28 26 23 20 20 20 20 21 21 20 20 20 19 19 19 20 20 19 19 19 18 17 17 16 16 15 15 16 16 16 16 17 16 16 18 18 18 20 21 19 19 21 21 21 22 22 23 23 24 25 26 27 27
23 21 19 17 15 12 10 8 6 6 6 8 8 10 12 14 16 18 20 23 25 27 29 30 31 32 32 33 33 33 34 35 35 35 33 31 29 27 24 22 21 20 20 20 20 19 19 18 17 17 18 18 18 18 18 18 17 17 16 15 15 16 16 16 17 18 17 17 19 19 17 19 23 21 18 20 22 22 22 23 24 24 25 26 26 26 26 26
25 23 21 19 17 15 13 11 8 6 6 6 7 7 9 10 12 14 17 19 21 23 25 27 29 30 31 31 32 31 31 32 32 33 33 33 31 30 27 24 22 21 21 20 20 19 19 18 17 17 17 17 17 16 16 16 16 15 15 16 16 16 16 17 17 17 17 19 20 18 18 22 24 21 20 22 23 24 24 25 25 25 25 25 25 24 23 22
28 26 24 22 20 18 16 14 11 9 7 6 6 6 6 7 9 11 13 15 17 19 21 23 25 26 28 29 30 30 30 30 29 30 30 31 31 30 29 27 25 22 21 20 19 18 17 16 16 16 16 17 16 16 16 15 15 15 16 16 15 16 16 17 17 18 19 19 19 19 21 24 23 21 22 24 24 24 24 23 23 23 23 22 22 20 18 16
Wind_Direction
353 352 352 352 352 352 351 349 348 347 346 344 343 340 337 334 330 324 316 306 295 284 271 259 252 246 242 237 233 230 228 228 228 228 229 227 223 219 217 218 218 217 217 216 217 218 220 223 223 217 212 208 205 205 204 204 203 200 198 196 194 193 192 193 194 198 195 187 189 195 197 195 193 195 197 202 205 202 200 198 200 200 196 196 202 208 208 211
352 351 350 350 351 351 350 348 347 346 345 344 342 340 338 335 332 326 318 309 297 285 274 261 251 246 242 238 234 230 228 227 227 227 227 226 223 219 217 217 217 216 216 215 215 217 218 222 225 222 217 212 206 204 205 205 205 202 200 197 195 196 197 195 197 198 190 185 190 193 195 195 194 198 200 202 203 202 201 202 204 202 198 204 211 212 212 213
351 350 349 349 349 350 349 348 347 346 345 344 342 341 338 336 333 328 321 311 299 286 275 263 252 246 242 238 234 231 228 226 225 226 226 225 223 219 217 216 216 216 215 214 214 216 217 219 224 225 220 218 213 206 205 206 206 204 202 200 199 199 199 197 197 195 189 188 191 192 194 195 196 199 199 197 201 208 207 206 208 209 213 221 225 220 215 215
350 349 348 348 348 349 349 348 346 345 345 344 342 341 339 337 334 330 323 313 301 287 275 264 253 246 242 238 234 231 228 225 224 225 224 224 222 219 217 216 216 216 214 213 213 214 216 217 221 225 223 220 219 213 206 205 207 206 205 203 202 201 200 199 198 195 191 192 193 192 194 196 197 198 197 196 204 213 211 208 212 218 226 226 226 224 218 216
348 348 347 347 347 348 348 348 346 346 345 344 343 341 339 337 336 332 325 316 304 289 276 265 255 247 242 239 234 231 228 225 223 223 223 222 222 219 216 216 215 215 214 212 212 212 215 216 218 223 225 222 221 219 211 206 206 207 207 205 203 202 203 202 199 197 196 195 193 192 195 197 197 196 197 199 206 210 208 206 212 222 228 225 223 225 221 218
347 347 347 347 347 348 348 348 347 346 345 345 343 342 340 338 337 333 327 318 307 292 278 266 257 249 242 239 235 231 228 225 223 222 221 220 220 218 215 214 214 214 213 212 211 211 213 215 217 221 225 224 222 222 217 212 209 207 208 207 205 203 203 204 202 202 199 196 194 191 196 199 199 198 197 202 206 206 207 207 212 219 223 223 223 225 224 221
347 347 346 346 347 348 348 348 347 346 346 345 344 343 341 339 338 334 328 320 309 297 283 269 259 251 244 239 235 231 228 225 223 221 221 219 219 218 215 213 213 213 212 212 211 210 211 213 216 219 223 224 223 223 219 217 214 207 206 207 207 206 204 205 205 204 200 197 194 192 196 200 203 202 199 203 203 202 209 211 214 219 221 222 223 225 225 224
346 346 346 346 347 348 348 348 347 347 347 346 344 343 342 341 339 336 329 322 313 301 289 275 263 253 246 240 236 232 227 224 222 220 220 219 217 217 215 212 212 212 211 211 210 210 210 211 214 216 221 224 224 224 221 219 216 210 207 206 207 207 206 206 204 204 200 196 194 192 196 201 203 203 202 205 204 202 210 216 219 222 222 222 224 227 228 227
346 346 346 346 347 348 349 349 348 348 347 346 345 344 343 342 340 337 331 325 317 307 297 286 273 260 250 242 237 233 227 223 221 219 219 218 216 215 214 212 210 211 210 209 209 209 209 209 212 214 218 222 223 224 222 221 218 214 212 209 207 206 207 206 205 205 201 197 195 195 196 199 201 202 203 206 206 206 212 220 223 224 222 222 226 230 231 230
345 345 345 346 347 348 350 350 349 349 348 347 346 345 345 344 341 339 334 328 322 314 305 296 286 274 259 247 240 234 227 223 220 217 217 216 215 214 213 212 210 209 209 208 208 209 209 209 210 213 215 219 223 224 223 221 219 216 216 214 211 208 206 206 205 204 203 199 197 197 198 198 199 202 205 208 211 212 216 220 221 220 219 220 226 231 233 234
346 345 346 346 348 349 350 350 349 350 349 348 347 346 346 345 343 341 338 333 327 322 314 304 296 287 273 255 244 236 229 224 220 216 215 215 214 213 211 210 209 208 208 207 207 207 208 208 209 211 213 217 221 223 223 221 219 218 217 217 217 213 210 208 205 204 204 202 200 200 200 199 198 201 204 208 213 215 218 219 220 221 219 220 226 232 236 238
346 346 346 347 348 350 351 351 350 350 350 348 347 347 347 347 345 343 340 337 333 329 322 312 302 296 287 268 249 239 230 225 221 216 214 213 213 212 210 209 207 207 207 206 205 206 206 207 207 209 211 214 218 220 222 221 219 218 217 218 219 219 216 212 208 205 204 203 202 202 202 201 201 202 204 207 211 214 216 218 221 225 225 225 229 234 239 240
346 346 347 348 349 351 352 351 351 351 351 349 348 348 348 348 347 345 343 341 339 335 329 321 311 301 295 280 256 241 231 225 221 216 212 210 210 211 209 207 206 205 206 204 203 204 205 206 207 207 208 210 213 216 218 220 219 217 215 217 219 219 219 215 210 207 206 205 204 203 203 202 203 204 205 207 210 213 216 218 221 226 229 231 235 237 240 242
347 347 348 349 350 351 352 352 352 352 351 350 349 349 349 350 349 347 345 345 344 341 336 329 320 306 296 285 264 246 231 224 221 217 212 209 208 209 208 206 204 203 204 204 202 202 203 205 206 207 207 208 211 213 214 216 218 216 214 215 217 217 218 217 213 209 209 208 207 206 205 204 204 205 205 207 208 210 215 220 222 224 226 228 234 237 239 243
348 348 349 350 351 352 353 353 353 353 352 351 350 350 350 351 351 349 347 347 348 346 342 336 326 313 297 284 268 251 233 222 219 216 211 207 205 206 207 205 202 201 202 202 201 200 201 203 205 206 207 207 209 211 212 213 215 215 214 215 215 216 216 217 216 213 210 210 210 209 207 205 206 207 208 208 209 211 216 221 224 225 226 227 231 237 239 242
349 349 350 351 352 353 354 354 354 354 353 352 351 351 351 353 352 350 348 348 350 348 347 344 333 319 300 283 266 251 234 220 215 214 210 206 203 203 205 204 201 199 199 201 200 199 199 201 203 204 205 206 207 209 211 212 213 214 214 215 216 216 215 215 216 215 213 213 212 210 209 206 207 210 211 211 212 216 219 222 225 226 229 231 233 237 239 241
349 350 351 352 353 355 355 354 355 355 354 353 352 352 352 354 353 352 349 348 350 350 350 349 342 326 303 285 263 243 229 217 211 209 207 204 201 201 202 203 200 197 197 198 199 198 198 199 201 202 203 204 206 207 209 210 212 212 213 214 215 215 215 216 216 216 215 215 213 212 211 208 209 212 213 214 216 220 222 222 226 228 228 231 235 237 239 240
350 351 352 353 354 356 356 355 356 356 355 354 353 353 353 355 356 354 350 348 351 352 350 349 347 332 307 289 262 236 222 212 205 203 202 201 199 198 199 201 198 195 195 196 197 196 196 197 198 201 202 203 205 206 209 211 213 213 214 214 213 212 213 214 215 216 215 216 215 214 214 212 211 214 216 217 218 220 223 223 226 230 229 230 234 236 237 238
351 352 353 353 355 357 357 356 357 357 356 355 354 354 354 357 357 356 353 352 352 351 351 351 349 337 307 289 264 230 214 206 200 196 195 195 196 195 197 198 196 194 193 194 195 195 195 195 197 199 201 203 204 205 207 210 210 212 215 215 214 213 212 211 213 215 216 216 215 214 215 214 214 215 217 220 221 222 224 225 226 230 231 231 232 234 235 236
351 353 354 354 356 358 358 357 358 359 358 357 356 355 356 358 359 358 358 356 352 352 355 356 353 345 314 278 263 225 205 199 194 189 188 189 191 192 194 196 194 192 191 192 193 193 193 194 196 197 199 201 203 204 206 207 208 209 212 214 215 214 214 213 213 214 215 216 216 215 215 215 216 217 218 220 223 225 226 227 228 230 231 232 231 232 234 236
352 354 354 355 357 359 359 359 360 360 359 358 357 357 357 359 0 1 1 358 356 358 2 2 0 356 336 266 239 219 197 190 186 183 182 183 186 188 190 193 193 190 189 189 190 191 192 193 194 195 197 199 201 204 206 207 208 209 210 211 212 213 213 213 215 215 216 217 218 219 218 217 216 217 218 219 221 225 227 228 229 231 232 232 231 232 237 241
352 354 355 356 358 360 360 360 1 1 0 359 358 358 359 0 2 2 3 2 1 6 8 8 8 7 5 315 209 198 185 179 176 176 176 178 181 184 186 188 190 189 188 188 188 190 191 191 191 193 195 196 198 201 205 207 208 210 210 210 211 212 213 213 213 214 216 219 220 221 221 219 217 217 217 217 219 223 225 227 229 231 232 231 233 236 241 243
353 355 356 357 359 1 1 1 2 2 2 1 0 360 0 2 3 4 6 5 7 13 14 13 14 18 28 36 181 177 165 165 166 168 170 172 176 180 183 185 186 186 186 186 187 189 189 189 189 191 192 193 194 197 203 206 207 209 209 209 209 210 212 213 213 213 214 217 220 222 222 221 218 218 216 215 217 220 223 229 232 232 233 231 235 239 240 239
353 355 356 358 359 1 2 2 3 4 4 3 2 1 2 4 5 7 8 8 14 18 16 17 19 23 34 48 117 145 148 155 158 161 164 167 171 176 180 182 182 183 184 184 186 187 187 187 188 189 189 190 192 195 200 203 205 207 207 207 209 209 210 212 213 214 215 217 220 221 222 222 220 220 219 216 217 220 223 230 232 231 232 233 236 238 237 233
353 356 357 358 0 2 3 3 4 5 5 5 3 3 4 5 6 10 11 13 21 22 19 23 25 26 39 57 99 126 139 148 152 156 159 162 166 171 176 179 179 180 182 183 184 184 184 185 187 187 187 189 192 194 197 201 204 205 204 205 208 208 207 209 211 214 216 217 218 221 223 224 223 223 223 221 221 225 227 231 235 232 231 234 235 233 233 229
353 356 357 358 1 3 4 5 5 6 7 7 5 5 7 7 8 13 15 19 25 23 25 32 30 31 47 67 98 122 135 144 148 152 155 157 161 166 173 178 180 180 181 182 182 182 182 183 184 185 186 188 190 193 196 199 200 201 201 202 206 207 206 206 209 213 215 215 216 218 221 222 223 225 226 225 226 227 227 235 241 234 231 233 230 228 228 224
353 356 358 359 1 4 5 6 6 7 9 9 7 7 9 9 11 15 20 25 28 26 32 41 39 41 58 79 101 121 133 141 145 148 152 154 157 163 169 175 179 180 179 179 179 180 181 182 183 185 186 187 189 191 193 196 197 198 198 200 203 206 204 203 206 210 213 215 215 216 217 219 221 224 228 229 229 233 237 244 242 231 231 231 223 219 219 216
353 357 358 359 2 5 6 7 7 8 11 11 9 9 10 12 14 18 23 29 31 31 36 44 49 55 68 86 105 120 131 138 142 144 149 152 154 159 167 171 176 178 177 176 178 178 180 182 183 184 185 185 187 189 190 191 192 194 195 196 199 202 203 205 207 209 211 214 215 216 216 218 218 219 227 230 229 235 237 234 225 217 221 218 207 207 210 211
353 357 359 360 2 5 7 8 9 9 12 13 11 11 11 14 17 21 26 30 32 35 39 46 53 65 79 92 107 120 128 133 139 143 146 151 153 156 162 167 170 174 174 175 177 178 179 181 182 183 184 183 184 186 187 186 187 190 192 191 194 198 202 207 210 211 212 214 216 217 217 218 214 212 220 224 221 218 200 181 185 191 197 198 200 208 212 212
352 357 359 360 3 6 8 10 10 10 13 15 14 13 13 15 20 24 27 32 37 40 44 51 59 69 84 96 108 118 123 127 135 141 145 149 153 155 159 163 165 170 173 173 176 179 179 180 180 181 181 182 182 183 184 183 184 186 188 188 191 196 201 207 211 213 214 215 217 219 219 220 216 212 213 208 199 193 176 160 167 182 198 204 208 212 212 210
352 357 360 0 3 7 9 11 11 11 14 16 16 15 15 17 21 26 29 34 40 45 50 59 66 73 85 98 107 114 118 123 132 139 144 148 152 155 158 162 163 167 172 172 174 177 178 178 178 179 180 180 181 181 183 183 182 183 185 188 191 195 199 205 210 214 217 219 220 221 222 223 221 217 215 208 197 194 199 214 234 241 234 221 211 208 207 206
351 357 0 1 4 7 10 12 12 13 15 18 19 17 17 19 22 27 30 35 42 48 53 62 71 77 87 98 106 111 114 122 131 136 143 148 152 155 159 163 165 166 170 172 172 175 177 176 177 178 178 180 180 180 181 182 183 184 185 187 190 192 196 200 206 212 217 220 221 223 226 227 227 224 222 221 220 225 236 247 252 251 245 232 217 208 206 208
350 356 0 1 5 9 11 13 14 14 16 19 20 19 19 20 23 28 31 36 41 47 54 65 75 82 91 98 104 110 113 120 128 134 142 149 151 155 159 164 167 167 170 172 171 173 175 175 177 177 177 179 179 180 181 181 183 184 184 185 185 188 193 196 201 207 213 219 220 223 226 227 228 229 227 229 233 238 244 249 251 249 243 232 218 209 211 217
349 355 0 2 5 9 12 13 15 15 17 20 22 22 22 23 25 29 32 36 41 45 53 66 79 88 95 99 103 109 114 120 125 131 140 146 150 154 157 162 166 167 171 173 171 173 175 175 175 176 176 177 178 179 181 182 183 183 183 185 184 185 188 192 198 203 207 212 214 217 223 226 228 228 226 228 233 238 242 246 248 244 234 223 215 214 218 225
347 353 360 2 5 10 12 14 16 17 18 21 23 23 25 26 27 29 33 37 41 45 51 61 77 91 98 102 106 109 114 121 125 130 138 145 151 153 155 162 165 166 171 174 172 172 175 175 174 174 175 176 177 178 180 183 184 184 184 185 185 185 183 183 186 187 189 198 205 211 217 222 224 223 219 222 227 231 233 236 235 227 218 214 214 218 224 233
345 352 359 2 5 10 13 15 17 18 19 22 23 25 27 28 29 30 33 37 42 46 50 57 70 89 101 104 106 111 115 120 123 129 138 144 149 151 154 162 165 165 170 174 173 172 173 175 174 174 175 176 177 177 178 181 184 186 186 184 184 183 181 178 175 175 182 189 194 200 207 211 212 211 211 212 214 214 214 213 210 206 206 209 215 223 233 243
342 350 357 2 5 9 14 16 17 19 21 22 24 26 29 31 31 32 34 38 42 46 51 55 64 79 98 108 110 112 116 119 121 128 137 141 145 147 150 159 162 162 167 171 173 172 173 175 174 173 175 176 176 176 176 178 182 186 186 182 182 184 183 180 177 179 183 181 179 184 189 192 194 194 195 195 194 195 194 195 197 200 206 213 223 234 246 257
336 347 354 2 5 9 14 17 18 20 22 24 25 28 30 32 34 34 35 38 41 46 50 54 60 69 84 103 113 116 119 120 121 127 133 135 140 143 146 153 157 158 163 168 170 171 173 176 175 174 175 176 177 178 177 178 180 183 184 184 186 187 185 184 183 185 182 175 172 175 174 178 181 179 180 183 184 187 190 195 201 208 217 227 237 249 258 267
328 342 351 0 5 8 14 18 18 21 23 25 27 29 31 33 35 37 38 38 40 44 49 53 58 65 74 88 105 116 122 123 123 128 130 130 135 138 142 149 152 154 160 165 168 170 173 176 177 175 175 177 178 179 179 179 179 179 184 188 189 188 187 187 188 189 184 178 177 177 175 178 178 179 182 185 189 195 200 206 215 222 232 241 249 258 264 270
317 335 346 357 4 7 13 18 19 21 24 26 29 31 32 34 36 39 40 40 41 43 47 51 56 61 67 77 91 107 118 123 124 127 127 128 133 137 142 147 149 151 158 161 164 169 171 175 179 177 176 178 180 181 182 182 179 179 184 189 188 187 188 189 190 191 188 185 186 187 185 184 183 187 194 197 202 209 214 221 229 236 244 250 256 262 266 270
304 325 339 352 2 6 11 18 20 21 24 27 30 32 34 36 37 40 42 43 43 44 45 49 54 58 63 70 80 93 107 115 118 122 126 128 132 138 142 146 148 150 156 158 161 166 169 173 181 182 179 179 181 182 184 185 184 184 185 187 188 189 191 192 192 192 191 189 193 196 193 192 195 199 205 210 215 222 227 232 238 244 251 256 260 264 267 270
291 311 329 344 359 4 8 16 20 21 23 28 31 33 35 37 39 40 43 44 46 46 46 48 52 56 60 65 73 83 94 103 110 116 122 126 130 136 140 144 147 149 155 158 160 164 167 169 177 183 182 181 182 184 185 187 189 189 187 187 189 192 195 196 196 196 195 194 200 202 198 200 208 211 214 220 226 231 237 242 247 252 256 260 264 267 270 273
277 296 317 335 352 2 5 13 19 20 23 27 32 35 36 38 40 42 43 45 47 48 49 50 51 54 58 62 68 76 85 93 101 108 115 121 127 134 138 142 146 148 153 158 160 163 166 165 169 178 182 182 184 187 188 188 191 193 193 192 193 196 199 200 200 201 202 202 207 209 206 208 216 221 223 228 234 239 244 249 252 256 260 263 267 270 273 276
265 281 299 317 337 356 2 8 16 20 22 26 30 35 38 39 41 43 44 46 47 49 51 51 52 54 56 59 64 71 80 88 96 104 112 119 126 133 138 142 144 146 151 156 159 162 165 164 165 172 179 180 184 188 190 191 193 195 198 200 200 202 205 205 206 208 209 210 213 216 215 217 223 229 232 235 239 243 247 251 255 259 263 266 269 272 274 276
254 267 282 296 317 344 358 2 10 18 21 24 28 33 39 41 42 44 46 47 48 50 52 53 54 55 56 58 61 67 74 83 93 103 112 119 127 134 139 142 144 145 149 154 156 160 165 166 166 169 173 177 180 184 187 191 194 195 198 202 204 206 209 210 213 215 217 219 221 224 225 226 230 235 237 240 244 247 251 254 257 261 264 266 269 271 273 275
245 254 266 279 297 322 348 356 2 13 20 24 27 31 37 42 44 45 47 48 49 50 52 54 55 57 57 58 60 63 68 76 85 95 107 118 127 135 140 143 145 147 150 153 155 157 162 167 168 168 169 172 177 181 185 189 192 195 199 202 205 208 210 213 216 217 220 225 227 229 232 230 233 239 242 244 247 250 253 256 258 261 263 266 268 270 272 275
238 244 253 263 276 295 324 344 351 2 15 21 26 31 35 40 45 47 48 49 50 51 52 54 56 58 60 60 60 62 64 69 76 83 94 106 120 133 141 145 148 150 151 154 155 155 157 163 167 168 167 168 171 177 183 187 190 194 200 203 206 210 212 215 217 217 220 225 226 230 234 234 236 241 244 246 249 251 254 256 258 261 263 265 267 270 272 275
235 238 244 251 259 271 290 320 339 351 4 16 24 30 34 38 43 48 50 51 52 53 54 55 56 58 61 63 63 63 64 66 70 75 82 91 104 120 135 144 150 153 154 154 155 154 155 159 165 168 168 168 169 173 179 184 188 194 199 203 208 212 214 217 219 220 224 227 227 230 236 237 239 242 244 246 249 252 253 255 257 260 262 264 267 270 273 276
233 235 238 243 247 255 267 284 311 332 349 3 17 27 33 37 40 46 50 52 53 54 54 56 57 58 60 63 65 66 66 67 68 71 75 81 89 101 117 132 143 150 153 154 154 154 154 157 165 170 170 171 171 173 177 182 186 192 197 202 207 210 213 216 219 223 226 228 227 229 233 237 241 243 244 244 248 251 253 255 257 260 263 266 269 273 275 278
232 233 236 238 241 245 250 260 276 301 326 345 2 19 31 35 39 43 47 52 54 55 55 57 58 59 60 61 64 67 68 69 70 70 72 75 80 87 98 113 128 140 148 152 155 157 156 159 166 173 174 174 174 176 179 182 186 192 196 200 205 209 212 215 219 223 225 226 229 233 235 239 242 245 245 245 248 251 254 257 260 264 267 269 271 273 275 278
232 233 234 237 239 241 243 247 255 268 293 320 340 1 19 31 37 41 44 48 53 55 56 57 59 60 61 62 64 66 68 70 72 73 74 75 76 79 85 95 108 122 135 145 151 156 159 161 167 175 180 181 180 181 183 185 189 193 197 202 205 208 212 216 220 225 227 229 233 237 238 241 246 250 250 251 252 255 258 261 264 266 267 268 269 271 274 277
232 233 234 236 237 239 240 241 244 250 265 286 306 329 357 20 34 39 41 45 50 54 56 58 59 60 62 63 64 66 68 69 71 73 76 77 79 79 81 84 90 100 112 123 133 143 151 157 166 176 183 187 189 191 193 194 198 202 207 211 213 216 221 224 227 231 235 239 243 244 245 251 257 258 256 256 257 259 261 263 264 265 266 267 268 271 273 276
Height
5749 5746 5743 5739 5736 5733 5730 5726 5723 5720 5716 5712 5708 5704 5700 5696 5693 5689 5686 5683 5680 5678 5677 5676 5676 5676 5676 5678 5679 5682 5684 5687 5691 5694 5697 5701 5705 5709 5713 5716 5720 5724 5728 5733 5737 5741 5744 5746 5748 5752 5756 5759 5764 5768 5770 5773 5775 5779 5782 5785 5788 5791 5793 5795 5798 5802 5804 5807 5810 5813 5816 5818 5821 5823 5824 5825 5827 5829 5832 5834 5835 5836 5838 5839 5840 5841 5842 5843
5748 5745 5741 5737 5734 5730 5727 5724 5720 5717 5713 5708 5704 5700 5696 5692 5688 5684 5681 5677 5674 5672 5671 5670 5670 5670 5671 5672 5674 5676 5678 5681 5685 5688 5692 5696 5700 5704 5708 5712 5715 5719 5724 5729 5733 5737 5741 5743 5745 5749 5752 5756 5761 5765 5768 5771 5774 5777 5780 5783 5786 5788 5791 5793 5797 5800 5803 5805 5807 5811 5813 5816 5819 5820 5821 5824 5827 5830 5832 5833 5835 5836 5837 5838 5839 5840 5841 5842
5747 5743 5740 5736 5732 5728 5725 5721 5718 5713 5709 5705 5700 5695 5691 5687 5683 5679 5675 5672 5669 5666 5664 5664 5664 5664 5665 5666 5668 5670 5672 5675 5679 5683 5686 5690 5695 5699 5703 5707 5711 5715 5719 5724 5728 5733 5737 5740 5742 5745 5749 5752 5757 5762 5765 5769 5772 5775 5778 5781 5784 5786 5789 5792 5795 5798 5801 5803 5805 5808 5811 5813 5815 5817 5820 5823 5827 5829 5830 5832 5834 5835 5836 5837 5839 5839 5840 5841
5745 5742 5738 5734 5730 5726 5722 5719 5715 5710 5706 5701 5696 5691 5686 5682 5678 5674 5669 5666 5663 5660 5658 5657 5658 5658 5659 5660 5662 5664 5666 5669 5674 5677 5680 5685 5689 5694 5698 5702 5706 5710 5715 5719 5724 5729 5732 5737 5739 5742 5746 5749 5753 5758 5762 5767 5770 5773 5775 5778 5781 5785 5787 5790 5794 5796 5798 5801 5803 5807 5809 5811 5813 5815 5818 5820 5824 5827 5828 5831 5833 5834 5835 5836 5838 5839 5839 5840
5744 5740 5737 5732 5728 5724 5720 5716 5712 5707 5702 5697 5692 5686 5681 5677 5673 5668 5664 5660 5657 5654 5652 5651 5651 5652 5653 5654 5656 5658 5660 5664 5668 5671 5675 5679 5683 5688 5693 5697 5701 5705 5710 5715 5719 5724 5728 5733 5736 5739 5742 5746 5750 5755 5760 5763 5766 5769 5772 5776 5780 5783 5786 5789 5793 5794 5795 5798 5801 5805 5808 5810 5811 5814 5817 5819 5822 5824 5827 5831 5833 5833 5834 5836 5837 5838 5839 5839
5743 5739 5735 5731 5727 5722 5718 5714 5709 5704 5699 5693 5688 5682 5677 5672 5667 5663 5658 5654 5651 5649 5647 5645 5645 5645 5646 5647 5650 5652 5654 5658 5662 5665 5669 5673 5677 5682 5687 5692 5697 5701 5706 5710 5715 5720 5724 5729 5733 5736 5739 5743 5747 5751 5756 5759 5762 5767 5771 5776 5779 5781 5784 5788 5791 5792 5794 5797 5800 5803 5806 5808 5811 5813 5817 5820 5822 5824 5827 5829 5830 5832 5833 5835 5836 5837 5837 5838
5741 5737 5734 5729 5725 5720 5716 5712 5707 5701 5696 5690 5684 5678 5672 5667 5662 5657 5653 5649 5646 5643 5641 5640 5639 5639 5640 5641 5643 5645 5648 5653 5656 5659 5663 5668 5672 5677 5682 5687 5692 5697 5701 5706 5711 5715 5720 5725 5730 5733 5736 5740 5744 5748 5753 5755 5759 5765 5770 5774 5777 5780 5783 5786 5789 5790 5793 5796 5799 5802 5805 5807 5810 5813 5816 5819 5820 5822 5825 5827 5828 5829 5831 5833 5835 5836 5836 5837
5740 5736 5732 5728 5724 5719 5714 5709 5704 5699 5693 5687 5681 5674 5668 5662 5657 5652 5648 5644 5641 5638 5636 5635 5634 5633 5634 5635 5637 5639 5642 5647 5650 5654 5658 5662 5667 5672 5677 5683 5687 5692 5697 5702 5707 5712 5717 5722 5726 5730 5733 5737 5741 5745 5749 5752 5756 5762 5767 5771 5775 5779 5781 5784 5786 5788 5791 5795 5798 5801 5803 5806 5809 5812 5814 5816 5818 5820 5823 5825 5826 5827 5830 5832 5833 5834 5835 5836
5739 5735 5731 5727 5722 5718 5713 5707 5702 5697 5690 5684 5678 5671 5665 5659 5653 5648 5643 5639 5637 5634 5632 5630 5629 5628 5628 5629 5630 5632 5637 5640 5644 5649 5653 5657 5662 5667 5672 5678 5683 5688 5693 5699 5704 5708 5713 5717 5722 5726 5731 5734 5737 5741 5746 5750 5755 5760 5764 5768 5772 5775 5778 5781 5783 5785 5789 5793 5796 5798 5801 5803 5806 5809 5811 5813 5815 5818 5821 5823 5825 5827 5828 5831 5832 5833 5834 5835
5738 5734 5730 5726 5721 5716 5711 5706 5700 5694 5688 5681 5675 5668 5662 5655 5649 5644 5639 5636 5632 5630 5628 5626 5624 5623 5623 5624 5624 5627 5631 5634 5638 5643 5647 5652 5657 5662 5668 5673 5679 5684 5690 5695 5700 5705 5710 5715 5720 5724 5728 5731 5734 5738 5743 5748 5753 5758 5762 5766 5769 5772 5776 5779 5781 5784 5788 5791 5794 5796 5798 5801 5804 5807 5810 5812 5814 5817 5819 5821 5824 5825 5827 5829 5830 5831 5833 5834
5737 5733 5729 5724 5720 5714 5709 5704 5698 5692 5685 5679 5672 5665 5659 5652 5646 5640 5636 5632 5629 5626 5624 5622 5620 5619 5618 5618 5619 5622 5626 5629 5633 5638 5643 5647 5652 5657 5663 5669 5675 5681 5686 5692 5697 5702 5708 5714 5718 5721 5725 5729 5732 5736 5741 5746 5752 5756 5760 5763 5766 5769 5773 5776 5779 5783 5786 5789 5792 5794 5797 5799 5802 5805 5808 5811 5813 5815 5818 5820 5822 5824 5825 5827 5828 5830 5831 5833
5736 5732 5728 5723 5718 5713 5708 5702 5697 5690 5683 5676 5669 5662 5656 5650 5643 5638 5633 5630 5626 5623 5621 5619 5617 5615 5614 5613 5614 5617 5620 5624 5628 5633 5638 5643 5648 5653 5658 5664 5671 5677 5683 5688 5694 5700 5704 5709 5713 5717 5722 5727 5731 5734 5740 5745 5749 5753 5758 5761 5763 5767 5770 5774 5778 5781 5784 5788 5790 5793 5795 5798 5801 5803 5806 5809 5811 5814 5816 5818 5820 5822 5823 5825 5827 5829 5830 5832
5736 5731 5727 5722 5717 5712 5706 5701 5695 5688 5682 5674 5667 5660 5653 5647 5641 5635 5631 5627 5624 5621 5618 5616 5614 5612 5611 5610 5610 5611 5614 5619 5624 5628 5633 5639 5644 5649 5654 5660 5667 5673 5679 5685 5691 5696 5701 5705 5709 5714 5719 5724 5728 5732 5738 5742 5746 5751 5755 5758 5761 5764 5768 5772 5776 5779 5782 5785 5789 5791 5794 5797 5800 5802 5805 5807 5810 5812 5815 5817 5819 5820 5822 5824 5826 5827 5829 5831
5735 5731 5726 5721 5716 5711 5705 5700 5694 5687 5680 5673 5665 5658 5651 5644 5639 5634 5629 5626 5622 5619 5616 5613 5611 5609 5608 5607 5607 5607 5610 5614 5619 5624 5629 5635 5640 5646 5651 5657 5663 5670 5676 5682 5688 5693 5697 5702 5707 5712 5716 5721 5726 5730 5735 5738 5742 5748 5752 5755 5758 5761 5765 5770 5774 5777 5780 5784 5787 5789 5792 5796 5799 5801 5804 5806 5808 5811 5814 5816 5817 5819 5820 5822 5824 5826 5828 5830
5735 5730 5725 5720 5715 5710 5705 5699 5693 5686 5679 5672 5664 5656 5649 5642 5637 5632 5628 5624 5621 5617 5614 5611 5608 5606 5605 5605 5605 5605 5606 5610 5614 5619 5625 5631 5637 5643 5648 5654 5660 5666 5673 5679 5685 5690 5695 5700 5704 5709 5715 5720 5724 5727 5731 5735 5740 5745 5749 5753 5756 5759 5764 5768 5772 5775 5779 5782 5785 5787 5791 5795 5798 5800 5802 5804 5807 5809 5812 5814 5816 5818 5819 5820 5822 5824 5826 5828
5734 5729 5725 5720 5715 5710 5704 5698 5692 5685 5678 5671 5663 5655 5648 5641 5635 5631 5627 5623 5620 5617 5613 5610 5606 5604 5603 5603 5603 5604 5605 5607 5610 5615 5622 5628 5634 5640 5645 5651 5657 5663 5670 5676 5682 5687 5692 5697 5702 5708 5713 5717 5721 5725 5729 5734 5738 5743 5748 5752 5755 5759 5763 5766 5770 5774 5777 5780 5782 5785 5789 5794 5796 5798 5800 5803 5805 5807 5809 5812 5814 5816 5818 5819 5821 5823 5825 5827
5734 5729 5724 5719 5715 5709 5704 5698 5691 5684 5678 5670 5662 5654 5647 5640 5634 5629 5625 5622 5619 5615 5611 5608 5605 5603 5602 5601 5602 5602 5603 5605 5608 5613 5619 5625 5632 5638 5643 5648 5654 5661 5667 5673 5679 5684 5689 5695 5701 5706 5710 5714 5718 5723 5727 5731 5736 5741 5746 5750 5754 5758 5762 5766 5769 5772 5775 5778 5781 5784 5788 5792 5794 5796 5798 5801 5803 5805 5807 5810 5812 5814 5816 5818 5819 5821 5823 5825
5733 5729 5724 5719 5714 5709 5703 5698 5691 5684 5677 5670 5661 5654 5646 5640 5633 5628 5625 5621 5618 5614 5611 5607 5604 5602 5601 5600 5600 5601 5602 5604 5607 5611 5616 5623 5630 5636 5641 5646 5652 5658 5665 5671 5677 5682 5688 5694 5699 5703 5707 5711 5717 5722 5727 5732 5737 5742 5744 5748 5752 5756 5760 5764 5767 5771 5774 5777 5780 5784 5787 5790 5792 5794 5796 5799 5801 5803 5805 5808 5810 5812 5814 5816 5818 5820 5822 5823
5733 5729 5724 5719 5714 5709 5703 5698 5691 5684 5677 5670 5661 5653 5646 5639 5633 5629 5625 5621 5617 5614 5610 5606 5603 5601 5600 5599 5599 5599 5601 5603 5606 5610 5615 5621 5627 5634 5639 5644 5651 5657 5663 5669 5675 5681 5687 5692 5696 5701 5706 5712 5718 5723 5728 5732 5736 5740 5743 5748 5752 5756 5759 5763 5766 5769 5772 5775 5779 5782 5785 5788 5790 5792 5795 5797 5799 5801 5804 5806 5808 5810 5812 5814 5816 5818 5820 5822
5733 5729 5724 5720 5714 5709 5704 5698 5691 5685 5678 5670 5662 5654 5646 5639 5633 5628 5624 5620 5617 5614 5609 5605 5602 5599 5598 5597 5598 5598 5600 5602 5605 5609 5614 5619 5626 5632 5638 5644 5649 5655 5661 5668 5674 5679 5685 5690 5695 5701 5706 5712 5717 5722 5726 5730 5733 5737 5742 5747 5751 5755 5759 5763 5765 5768 5771 5774 5777 5780 5783 5785 5788 5791 5793 5795 5798 5800 5802 5804 5806 5808 5810 5812 5814 5816 5818 5820
5734 5729 5725 5720 5715 5709 5704 5698 5692 5685 5678 5671 5663 5654 5647 5639 5633 5628 5624 5621 5617 5613 5608 5604 5601 5598 5597 5596 5597 5597 5599 5601 5604 5609 5613 5618 5624 5631 5637 5643 5648 5654 5660 5666 5672 5678 5683 5688 5694 5701 5706 5712 5717 5722 5725 5728 5731 5736 5741 5746 5750 5754 5758 5762 5765 5768 5771 5773 5776 5779 5781 5783 5786 5789 5791 5794 5796 5799 5800 5802 5805 5807 5808 5810 5813 5815 5817 5819
5734 5730 5725 5720 5715 5710 5705 5699 5693 5686 5679 5672 5663 5655 5647 5640 5634 5629 5625 5621 5617 5613 5608 5604 5601 5598 5596 5595 5596 5597 5598 5600 5604 5609 5614 5619 5625 5631 5636 5641 5647 5653 5660 5666 5671 5676 5682 5688 5695 5701 5706 5712 5717 5721 5723 5726 5731 5737 5741 5745 5749 5753 5757 5760 5763 5766 5770 5773 5775 5777 5779 5782 5784 5787 5790 5792 5795 5797 5799 5801 5803 5805 5807 5809 5811 5813 5815 5817
5734 5730 5726 5721 5716 5711 5705 5700 5694 5687 5680 5673 5665 5656 5648 5641 5635 5630 5625 5622 5618 5613 5609 5606 5602 5599 5597 5596 5596 5597 5599 5601 5605 5610 5615 5620 5625 5631 5636 5641 5647 5654 5660 5666 5671 5676 5682 5690 5696 5701 5707 5712 5716 5719 5722 5725 5731 5736 5740 5744 5748 5752 5756 5759 5762 5765 5768 5771 5774 5776 5778 5780 5783 5785 5788 5791 5793 5795 5797 5799 5802 5804 5806 5808 5810 5811 5813 5814
5735 5731 5726 5722 5717 5712 5706 5701 5695 5689 5682 5675 5666 5658 5650 5642 5636 5631 5627 5623 5618 5613 5610 5607 5603 5600 5598 5597 5597 5598 5600 5602 5606 5611 5616 5621 5626 5632 5637 5642 5648 5653 5659 5664 5669 5676 5684 5691 5696 5701 5707 5711 5714 5717 5720 5725 5730 5734 5739 5744 5747 5750 5754 5757 5761 5764 5767 5770 5772 5774 5777 5779 5782 5784 5787 5790 5792 5794 5796 5797 5800 5802 5804 5806 5808 5809 5811 5813
5736 5732 5727 5723 5718 5713 5707 5702 5696 5690 5684 5677 5669 5661 5652 5644 5638 5633 5629 5625 5619 5615 5613 5609 5606 5603 5601 5599 5599 5600 5602 5605 5609 5614 5618 5623 5628 5634 5639 5643 5647 5652 5657 5663 5669 5677 5684 5690 5696 5701 5706 5709 5713 5716 5720 5726 5730 5734 5739 5743 5746 5749 5752 5756 5759 5763 5765 5768 5771 5773 5776 5778 5781 5784 5786 5788 5791 5792 5794 5796 5797 5800 5802 5804 5806 5808 5809 5811
5736 5732 5728 5724 5719 5714 5709 5704 5698 5692 5686 5679 5671 5663 5655 5647 5641 5635 5631 5626 5621 5619 5616 5612 5610 5608 5605 5603 5603 5604 5606 5609 5613 5617 5621 5625 5630 5635 5640 5645 5648 5652 5658 5665 5672 5679 5685 5690 5696 5701 5704 5708 5712 5717 5721 5726 5730 5735 5739 5742 5745 5748 5751 5754 5758 5761 5763 5766 5769 5772 5774 5777 5780 5783 5785 5787 5789 5791 5793 5794 5796 5798 5800 5802 5804 5806 5808 5810
5737 5733 5729 5725 5720 5715 5710 5705 5700 5694 5688 5681 5674 5666 5658 5651 5644 5638 5633 5628 5625 5623 5619 5616 5615 5612 5609 5608 5608 5609 5611 5613 5617 5620 5624 5628 5632 5637 5642 5646 5651 5655 5661 5667 5674 5680 5685 5690 5695 5699 5703 5708 5713 5717 5722 5726 5731 5735 5738 5741 5745 5748 5750 5753 5756 5759 5762 5765 5768 5770 5772 5776 5779 5782 5784 5786 5788 5790 5792 5793 5794 5796 5798 5799 5802 5804 5806 5809
5738 5734 5730 5726 5722 5717 5712 5707 5702 5696 5690 5684 5677 5669 5661 5654 5648 5641 5636 5632 5629 5626 5622 5620 5618 5616 5614 5613 5613 5615 5616 5619 5621 5624 5628 5632 5635 5640 5645 5648 5653 5659 5664 5670 5675 5680 5685 5691 5695 5699 5704 5709 5714 5719 5723 5728 5732 5735 5737 5742 5744 5747 5750 5752 5755 5759 5761 5764 5766 5769 5771 5774 5778 5781 5783 5785 5788 5790 5791 5791 5792 5795 5797 5799 5801 5804 5807 5809
5739 5735 5732 5728 5723 5719 5714 5709 5704 5699 5693 5687 5680 5673 5665 5658 5651 5644 5638 5635 5632 5628 5626 5624 5622 5620 5618 5618 5619 5621 5622 5624 5627 5628 5632 5635 5639 5643 5647 5651 5656 5661 5666 5671 5676 5681 5686 5691 5696 5701 5707 5711 5715 5720 5724 5728 5731 5734 5738 5742 5743 5746 5750 5753 5756 5758 5761 5763 5766 5768 5771 5773 5777 5780 5782 5784 5787 5789 5790 5791 5793 5795 5798 5800 5802 5804 5806 5808
5740 5736 5733 5729 5725 5720 5716 5711 5706 5701 5696 5690 5684 5677 5669 5662 5654 5647 5642 5639 5635 5632 5630 5628 5627 5625 5624 5624 5625 5626 5628 5630 5632 5634 5636 5639 5642 5645 5649 5652 5657 5662 5667 5671 5677 5682 5687 5692 5698 5703 5708 5712 5716 5720 5724 5727 5731 5735 5738 5741 5743 5747 5750 5752 5755 5758 5760 5763 5765 5768 5770 5773 5776 5778 5781 5784 5785 5788 5790 5792 5794 5797 5799 5800 5802 5804 5806 5808
5741 5738 5734 5731 5727 5722 5718 5713 5708 5704 5698 5693 5687 5681 5674 5666 5658 5652 5647 5642 5638 5636 5635 5633 5632 5630 5630 5630 5631 5632 5633 5634 5637 5639 5641 5643 5646 5648 5651 5654 5657 5662 5667 5672 5677 5683 5688 5694 5699 5704 5708 5712 5716 5720 5724 5727 5731 5735 5738 5741 5744 5747 5750 5753 5756 5758 5761 5763 5765 5768 5770 5773 5775 5778 5781 5783 5785 5787 5789 5791 5794 5797 5799 5800 5802 5804 5805 5807
5741 5739 5736 5732 5728 5724 5720 5715 5711 5706 5701 5696 5690 5685 5678 5670 5663 5656 5650 5645 5642 5641 5639 5638 5636 5635 5635 5635 5636 5637 5638 5639 5641 5643 5646 5648 5650 5652 5655 5657 5659 5662 5667 5672 5677 5683 5689 5694 5699 5704 5708 5713 5716 5720 5724 5728 5732 5735 5738 5742 5745 5748 5750 5753 5755 5758 5760 5763 5765 5768 5770 5773 5775 5778 5781 5783 5785 5787 5788 5791 5794 5796 5798 5800 5801 5803 5804 5806
5742 5740 5737 5734 5730 5726 5722 5718 5713 5709 5704 5699 5693 5688 5682 5674 5666 5659 5654 5649 5646 5645 5643 5642 5641 5639 5639 5640 5641 5641 5642 5644 5645 5647 5649 5652 5654 5656 5658 5661 5664 5667 5670 5674 5678 5684 5689 5694 5699 5704 5709 5713 5718 5722 5725 5729 5733 5736 5739 5742 5745 5748 5751 5753 5755 5758 5760 5763 5766 5768 5770 5772 5774 5777 5781 5784 5785 5786 5788 5790 5793 5795 5797 5799 5800 5802 5803 5805
5743 5740 5738 5735 5732 5728 5724 5720 5716 5712 5707 5702 5697 5692 5686 5679 5671 5664 5659 5655 5651 5649 5647 5645 5645 5644 5643 5644 5645 5646 5646 5648 5649 5651 5653 5655 5657 5659 5662 5664 5667 5670 5674 5677 5681 5686 5690 5694 5699 5705 5710 5714 5719 5723 5727 5730 5734 5737 5740 5743 5745 5748 5751 5754 5756 5759 5761 5764 5766 5768 5769 5771 5773 5777 5780 5782 5783 5785 5787 5789 5791 5794 5796 5797 5799 5800 5802 5803
5743 5741 5739 5736 5733 5730 5726 5722 5718 5714 5710 5705 5700 5696 5690 5683 5676 5670 5665 5660 5656 5653 5651 5649 5649 5648 5648 5647 5648 5650 5651 5652 5652 5654 5656 5658 5660 5662 5664 5667 5669 5673 5677 5680 5684 5688 5693 5698 5702 5707 5712 5716 5720 5724 5728 5732 5735 5738 5741 5744 5747 5749 5752 5755 5757 5759 5761 5763 5765 5767 5769 5771 5773 5776 5778 5780 5782 5785 5787 5788 5790 5792 5794 5796 5797 5799 5801 5802
5744 5742 5740 5737 5735 5731 5728 5724 5721 5717 5713 5708 5704 5699 5693 5688 5682 5676 5670 5665 5661 5658 5655 5654 5652 5651 5651 5652 5652 5653 5654 5655 5656 5658 5659 5661 5663 5665 5667 5670 5672 5675 5680 5684 5688 5691 5696 5701 5705 5709 5714 5717 5721 5725 5729 5733 5736 5739 5742 5745 5748 5751 5753 5755 5757 5759 5760 5762 5764 5766 5768 5770 5772 5775 5777 5779 5781 5783 5785 5787 5789 5791 5793 5795 5797 5798 5799 5800
5744 5743 5741 5739 5736 5733 5730 5726 5723 5719 5715 5711 5707 5702 5697 5692 5687 5681 5676 5671 5666 5663 5660 5658 5656 5655 5655 5655 5655 5656 5657 5658 5660 5661 5662 5664 5665 5667 5670 5673 5676 5679 5683 5688 5692 5696 5700 5703 5707 5711 5715 5719 5723 5726 5730 5733 5737 5740 5743 5746 5749 5751 5753 5755 5757 5758 5760 5762 5764 5766 5768 5770 5772 5774 5776 5778 5781 5783 5785 5787 5789 5791 5792 5794 5796 5797 5797 5798
5744 5743 5742 5740 5737 5735 5732 5729 5725 5722 5718 5715 5710 5706 5701 5697 5692 5687 5682 5676 5672 5668 5665 5663 5660 5659 5659 5658 5659 5660 5661 5661 5662 5664 5665 5667 5668 5670 5672 5676 5679 5682 5686 5690 5695 5699 5703 5706 5710 5713 5717 5720 5724 5727 5731 5734 5737 5741 5744 5747 5749 5751 5753 5755 5757 5759 5761 5763 5765 5766 5768 5770 5772 5774 5776 5778 5780 5782 5784 5786 5788 5790 5792 5793 5794 5795 5795 5796
5744 5743 5742 5741 5739 5736 5734 5731 5728 5725 5721 5718 5714 5709 5705 5701 5697 5692 5687 5682 5678 5674 5670 5668 5665 5663 5663 5662 5662 5662 5664 5665 5665 5667 5668 5670 5671 5673 5675 5678 5681 5684 5688 5692 5696 5700 5704 5708 5712 5715 5719 5722 5725 5729 5732 5735 5738 5742 5744 5747 5749 5751 5754 5756 5758 5760 5762 5764 5766 5767 5769 5770 5772 5775 5776 5778 5780 5782 5784 5786 5787 5789 5790 5791 5792 5793 5794 5794
5744 5744 5743 5741 5740 5738 5735 5733 5730 5727 5724 5721 5717 5713 5709 5705 5701 5697 5693 5688 5684 5680 5676 5672 5670 5669 5667 5666 5665 5666 5667 5668 5668 5670 5671 5672 5674 5676 5678 5681 5683 5686 5690 5694 5698 5702 5706 5711 5714 5717 5720 5724 5727 5730 5733 5736 5739 5742 5744 5747 5750 5752 5754 5756 5758 5760 5762 5765 5766 5768 5770 5771 5773 5775 5777 5778 5780 5782 5784 5785 5787 5788 5789 5790 5791 5792 5792 5793
5744 5744 5743 5742 5741 5739 5737 5734 5732 5730 5727 5724 5720 5716 5713 5709 5706 5702 5698 5694 5690 5686 5682 5678 5675 5674 5672 5671 5670 5670 5670 5671 5672 5673 5674 5676 5678 5679 5681 5684 5686 5689 5693 5696 5699 5704 5707 5712 5716 5719 5721 5725 5729 5732 5735 5738 5741 5742 5745 5748 5751 5753 5755 5757 5758 5760 5763 5765 5766 5768 5770 5772 5773 5775 5776 5778 5780 5781 5783 5784 5785 5787 5788 5789 5789 5790 5791 5791
5744 5744 5743 5743 5741 5740 5738 5736 5734 5732 5729 5726 5723 5720 5716 5713 5710 5706 5703 5699 5695 5692 5688 5684 5681 5679 5677 5676 5675 5674 5674 5674 5675 5676 5678 5679 5681 5683 5685 5688 5690 5693 5696 5698 5701 5705 5709 5712 5717 5721 5724 5727 5730 5733 5736 5739 5741 5744 5746 5749 5751 5753 5755 5757 5759 5761 5763 5765 5766 5768 5770 5772 5773 5774 5776 5777 5779 5780 5781 5783 5784 5785 5786 5787 5787 5788 5788 5788
5743 5744 5744 5743 5742 5741 5739 5737 5736 5734 5732 5729 5726 5723 5720 5717 5713 5710 5707 5704 5701 5697 5694 5690 5687 5684 5682 5681 5680 5679 5679 5679 5679 5680 5682 5683 5685 5687 5689 5691 5694 5696 5699 5702 5705 5708 5711 5715 5718 5723 5727 5729 5732 5734 5737 5739 5742 5745 5747 5749 5751 5753 5755 5758 5760 5762 5763 5765 5766 5768 5770 5771 5772 5774 5775 5777 5778 5779 5781 5782 5783 5783 5784 5785 5785 5785 5785 5786
5743 5743 5743 5743 5742 5742 5740 5739 5737 5736 5734 5732 5729 5726 5723 5720 5717 5714 5711 5709 5706 5703 5700 5696 5693 5691 5688 5687 5685 5684 5683 5683 5683 5684 5686 5687 5689 5691 5693 5695 5697 5700 5703 5706 5708 5711 5714 5717 5719 5723 5727 5730 5733 5736 5738 5741 5743 5745 5748 5750 5752 5754 5756 5758 5760 5761 5763 5765 5766 5768 5769 5771 5772 5773 5775 5776 5777 5778 5779 5780 5781 5782 5782 5783 5783 5783 5783 5783
5742 5742 5743 5743 5743 5742 5741 5740 5739 5737 5735 5734 5732 5729 5727 5724 5721 5718 5715 5713 5710 5708 5705 5702 5699 5697 5694 5692 5691 5689 5688 5688 5688 5688 5689 5691 5693 5695 5696 5698 5701 5703 5706 5709 5712 5714 5717 5719 5721 5724 5727 5730 5733 5736 5739 5741 5743 5746 5748 5750 5752 5754 5756 5757 5759 5761 5763 5764 5766 5767 5769 5770 5771 5772 5774 5775 5776 5777 5778 5778 5779 5779 5780 5780 5780 5780 5780 5780
5740 5741 5742 5743 5743 5742 5741 5741 5740 5738 5737 5736 5734 5732 5730 5727 5725 5722 5719 5717 5715 5712 5710 5707 5705 5702 5700 5698 5696 5695 5694 5693 5693 5693 5694 5695 5696 5698 5700 5702 5704 5706 5708 5711 5714 5717 5719 5722 5724 5726 5729 5731 5734 5737 5739 5741 5744 5746 5748 5749 5751 5753 5755 5757 5758 5760 5762 5763 5765 5766 5768 5769 5770 5771 5772 5773 5774 5775 5775 5776 5776 5777 5777 5777 5777 5777 5777 5777
5739 5740 5741 5742 5742 5742 5742 5741 5740 5740 5738 5737 5736 5735 5733 5731 5728 5726 5723 5721 5719 5717 5714 5712 5710 5708 5705 5703 5702 5701 5699 5698 5698 5697 5698 5698 5700 5701 5703 5705 5707 5709 5711 5714 5716 5719 5721 5724 5727 5729 5731 5733 5735 5738 5740 5742 5744 5746 5748 5749 5751 5753 5755 5756 5758 5760 5761 5762 5764 5765 5766 5767 5768 5769 5770 5771 5771 5772 5773 5773 5773 5774 5774 5775 5775 5775 5775 5775
5737 5738 5739 5741 5741 5742 5742 5741 5741 5740 5740 5739 5738 5736 5735 5734 5732 5729 5727 5725 5722 5721 5719 5717 5715 5713 5711 5709 5707 5706 5705 5704 5703 5703 5702 5702 5703 5704 5706 5708 5710 5712 5714 5717 5719 5721 5724 5726 5728 5731 5732 5734 5736 5738 5740 5742 5744 5746 5748 5749 5751 5752 5754 5755 5757 5759 5760 5761 5763 5763 5764 5765 5766 5766 5767 5768 5769 5769 5770 5770 5771 5771 5772 5772 5773 5773 5773 5773
5735 5737 5738 5739 5740 5741 5741 5741 5741 5741 5740 5740 5739 5738 5737 5736 5735 5733 5730 5728 5726 5724 5723 5721 5719 5718 5716 5714 5713 5711 5710 5709 5709 5708 5707 5707 5707 5707 5709 5710 5712 5715 5717 5719 5722 5724 5726 5728 5730 5732 5734 5735 5737 5739 5740 5742 5744 5746 5747 5749 5750 5752 5753 5755 5756 5757 5758 5760 5761 5761 5762 5763 5763 5764 5765 5766 5767 5767 5768 5768 5769 5769 5770 5770 5770 5770 5770 5770
5733 5735 5736 5738 5739 5740 5740 5741 5741 5741 5741 5741 5740 5739 5738 5738 5737 5735 5734 5732 5730 5728 5726 5725 5723 5722 5720 5719 5717 5716 5715 5714 5714 5713 5712 5712 5712 5712 5712 5713 5715 5717 5719 5721 5724 5726 5728 5729 5732 5734 5736 5737 5738 5740 5741 5743 5744 5746 5747 5749 5750 5751 5753 5754 5755 5755 5757 5758 5758 5760 5762 5761 5760 5762 5764 5764 5765 5765 5766 5766 5767 5767 5767 5768 5767 5767 5767 5767
5731 5733 5734 5736 5737 5739 5739 5740 5740 5741 5741 5741 5741 5740 5740 5739 5738 5737 5736 5735 5733 5732 5730 5729 5727 5726 5724 5723 5722 5721 5720 5719 5718 5718 5717 5717 5717 5717 5717 5718 5719 5720 5721 5723 5725 5727 5729 5731 5733 5735 5737 5738 5740 5741 5742 5743 5745 5746 5747 5748 5750 5751 5752 5753 5754 5755 5756 5756 5757 5759 5760 5758 5758 5761 5763 5762 5762 5763 5763 5764 5764 5764 5764 5764 5764 5764 5764 5765
5729 5731 5732 5734 5736 5737 5738 5739 5740 5740 5741 5741 5741 5741 5741 5740 5739 5739 5738 5737 5736 5735 5733 5732 5731 5730 5728 5727 5726 5725 5724 5723 5723 5722 5722 5721 5721 5721 5721 5722 5723 5724 5725 5726 5727 5729 5730 5732 5734 5736 5737 5739 5740 5742 5743 5744 5745 5746 5747 5748 5749 5750 5751 5752 5753 5754 5754 5755 5757 5758 5757 5756 5757 5760 5760 5760 5760 5761 5761 5762 5762 5762 5762 5762 5762 5762 5763 5763